STARLINK-35316

Last updated on Mon Oct 20 2025 00:02:06 GMT+0000 (Coordinated Universal Time)

1 65742U 25216J 25292.25002315 -.02059769 00000+0 -49382-1 0 9994 2 65742 53.1592 272.2161 0001136 73.3769 350.0694 15.44404495 4920
UTC large
Height (km)
Speed (km/s)
/
Latitude / Longitude
Inclination (degrees)
Orbital Period (minutes)
Azimuth
Elevation
Range (km)
Doppler Factor

Next 0 passes for location: London (51.5072 / 0.1276)

Sorry there are no passes over London.